[[{"header":{"parameterUnit":"m.s-1","parameterCategory":1,"la1":30.2991,"la2":30.254,"lo1":-89.0895,"lo2":-89.0444,"dy":0.0017,"dx":0.0017,"nx":28,"ny":28,"refTime":"2024-08-18T21:00:00:Z","depth":0,"parameterNumber":2,"parameterNumberName":"U-component_of_WINDS"},"data":[0,0,0,0,0,0,0,0,0,0,0,0,0,0,0,0,0,0,0,0,0,0,0,0,0,0,0,0,0,0,0,0,0,0,0,0,0,0,0,0,0,0,0,0,0,0,0,0,0,0,0,0,0,0,0,0,0,0,-0.5406,-0.5405,0,-0.5323,-0.5322,-0.5321,-0.526,-0.526,-0.5259,-0.5259,-0.5171,-0.5169,-0.5168,0,0,0,0,0,0,0,0,0,0,0,0,0,-0.5505,-0.5504,-0.5406,-0.5405,-0.5404,-0.5323,-0.5322,-0.5321,-0.526,-0.526,-0.5259,-0.5258,-0.5172,-0.517,-0.5167,0,0,0,0,0,0,0,0,0,0,0,0,0,-0.5446,-0.5503,-0.5406,-0.5364,-0.5359,-0.5323,-0.5322,-0.5321,-0.526,-0.526,-0.5259,-0.5258,-0.5173,-0.517,-0.5167,-0.5166,0,0,-0.5159,-0.5158,0,0,0,0,0,0,0,0,-0.545,-0.5443,-0.5371,-0.5367,-0.5361,-0.5301,-0.5325,-0.5269,-0.5261,-0.5298,-0.5259,-0.5258,-0.5215,-0.5209,-0.5195,-0.5162,-0.5158,-0.5158,-0.5157,-0.5156,-0.5155,0,0,0,0,0,0,0,-0.5454,-0.5446,-0.5373,-0.537,-0.5364,-0.5347,-0.5338,-0.5314,-0.5262,-0.5295,-0.529,-0.5281,-0.5212,-0.5198,-0.5192,-0.5157,-0.5159,-0.5156,-0.5154,-0.5153,-0.5114,-0.5114,0,0,0,0,0,0,-0.5465,-0.545,-0.5375,-0.537,-0.5405,-0.5346,-0.5336,-0.5321,-0.5262,-0.5252,-0.5282,-0.5279,-0.5203,-0.5196,-0.5189,-0.5181,-0.5156,-0.5153,-0.5151,-0.5113,-0.5114,-0.5115,0,0,0,0,0,0,-0.5468,-0.5459,-0.5379,-0.5409,-0.5397,-0.5345,-0.5329,-0.532,-0.5306,-0.5252,-0.5242,-0.5277,-0.5202,-0.5193,-0.5171,-0.5177,-0.5152,-0.5149,-0.5113,-0.5114,-0.5114,-0.5167,0,0,0,0,0,0,-0.5471,-0.546,-0.5461,-0.5409,-0.5396,-0.5365,-0.533,-0.5319,-0.5301,-0.5296,-0.5245,-0.5236,-0.52,-0.5176,-0.5169,-0.5173,-0.5147,-0.5112,-0.5113,-0.5114,-0.5164,-0.5169,-0.5174,0,0,0,0,0,-0.5474,-0.5479,-0.5461,-0.5453,-0.5396,-0.5365,-0.5357,-0.5317,-0.5302,-0.5301,-0.5266,-0.5237,-0.5178,-0.5174,-0.5165,-0.5169,-0.5111,-0.5113,-0.5114,-0.5162,-0.5168,-0.5174,0,0,0,0,0,0,-0.5533,-0.5472,-0.5451,-0.544,-0.5408,-0.5355,-0.5353,-0.5326,-0.5297,-0.5293,-0.5244,-0.5233,-0.5216,-0.519,-0.5187,-0.5162,-0.5141,-0.514,-0.518,-0.5186,-0.519,-0.5196,-0.5145,0,0,0,0,0,-0.5544,-0.5526,-0.5473,-0.5468,-0.5453,-0.5406,-0.5391,-0.5362,-0.5327,-0.5313,-0.5277,-0.5243,-0.5216,-0.5199,-0.5172,-0.516,-0.5146,-0.5158,-0.5163,-0.5167,-0.5167,-0.5155,-0.5159,-0.5119,-0.5119,-0.5119,0,0,-0.5568,-0.5532,-0.5524,-0.5478,-0.5451,-0.543,-0.5395,-0.5376,-0.536,-0.531,-0.5287,-0.5259,-0.5217,-0.52,-0.519,-0.5178,-0.5174,-0.5168,-0.5172,-0.517,-0.5157,-0.5161,-0.5164,-0.512,-0.512,-0.512,0,0,-0.56,-0.5572,-0.5564,-0.5536,-0.5494,-0.5462,-0.546,-0.541,-0.539,-0.5366,-0.5327,-0.5306,-0.5262,-0.5233,-0.5212,-0.523,-0.5201,-0.5222,-0.5247,-0.5236,-0.5239,-0.5242,-0.5246,-0.5248,-0.5223,-0.5223,-0.5223,0,-0.5634,-0.5604,-0.5562,-0.5545,-0.5525,-0.5479,-0.5468,-0.5443,-0.5394,-0.538,-0.5367,-0.5308,-0.5277,-0.525,-0.5254,-0.524,-0.5234,-0.5228,-0.5243,-0.5245,-0.5246,-0.5249,-0.5251,-0.5226,-0.5225,-0.5225,-0.5225,0,-0.5647,-0.5627,-0.5624,-0.5578,-0.5558,-0.5544,-0.5498,-0.5482,-0.5454,-0.5423,-0.5397,-0.5358,-0.532,-0.5312,-0.5285,-0.528,-0.5273,-0.5252,-0.5229,-0.5253,-0.5255,-0.5256,-0.5229,-0.5229,-0.5228,-0.5227,0,0,-0.5716,-0.5645,-0.5644,-0.5622,-0.5571,-0.5553,-0.5535,-0.5499,-0.5485,-0.5452,-0.5434,-0.5396,-0.5375,-0.5351,-0.5321,-0.5311,-0.5324,-0.529,-0.5289,-0.5297,-0.5313,-0.5329,-0.5331,-0.5305,-0.5305,-0.5305,-0.5316,0,-0.5739,-0.5707,-0.5667,-0.5647,-0.5626,-0.558,-0.5564,-0.553,-0.55,-0.5475,-0.544,-0.5413,-0.5389,-0.5374,-0.5363,-0.5326,-0.5327,-0.5324,-0.5286,-0.5285,-0.5297,-0.5333,-0.535,-0.5362,-0.5317,-0.5317,-0.5317,0,-0.5762,-0.5732,-0.571,-0.5658,-0.5648,-0.5635,-0.5596,-0.5575,-0.5533,-0.5511,-0.5484,-0.545,-0.5426,-0.5406,-0.5371,-0.537,-0.5351,-0.533,-0.5329,-0.5323,-0.5302,-0.5326,-0.5365,-0.5366,-0.5318,-0.5318,-0.5318,0,-0.5812,-0.5765,-0.5745,-0.5727,-0.5667,-0.5658,-0.5632,-0.559,-0.557,-0.5536,-0.5521,-0.5484,-0.5464,-0.5435,-0.5391,-0.5381,-0.5359,-0.5336,-0.5338,-0.5339,-0.5336,-0.5336,-0.5371,-0.5326,-0.5326,-0.5326,-0.5326,0,-0.5842,-0.583,-0.5766,-0.5754,-0.5738,-0.5691,-0.5676,-0.5646,-0.5608,-0.5587,-0.5545,-0.5526,-0.547,-0.5443,-0.5408,-0.5383,-0.5374,-0.5354,-0.5344,-0.5357,-0.5359,-0.5344,-0.5341,-0.5326,-0.5326,-0.5326,-0.5326,0,-0.5895,-0.5852,-0.5827,-0.5771,-0.5757,-0.5747,-0.5698,-0.5683,-0.5649,-0.5623,-0.5614,-0.556,-0.5526,-0.548,-0.5431,-0.5407,-0.5386,-0.5372,-0.54,-0.5395,-0.5399,-0.5398,-0.5423,-0.5423,-0.538,-0.5381,-0.5381,0,-0.5916,-0.5906,-0.5849,-0.5832,-0.5808,-0.5782,-0.576,-0.5712,-0.5691,-0.5642,-0.5632,-0.5595,-0.5562,-0.5509,-0.5465,-0.5426,-0.541,-0.5421,-0.5404,-0.5416,-0.5408,-0.5409,-0.5406,-0.5426,-0.5426,-0.5427,-0.5427,0,-0.5958,-0.5937,-0.5908,-0.5872,-0.5848,-0.5816,-0.5783,-0.5771,-0.5715,-0.5693,-0.5658,-0.5633,-0.5583,-0.5545,-0.55,-0.5471,-0.5439,-0.5433,-0.5431,-0.5444,-0.546,-0.5449,-0.541,-0.5433,-0.5432,-0.5432,-0.5432,-0.5431,-0.5994,-0.5982,-0.5939,-0.5908,-0.5878,-0.5847,-0.5829,-0.5792,-0.5763,-0.5719,-0.5692,-0.5657,-0.5612,-0.5549,-0.552,-0.5491,-0.5478,-0.5476,-0.5475,-0.5475,-0.5478,-0.5465,-0.5482,-0.5482,-0.5482,-0.5482,-0.5482,0,-0.6032,-0.6002,-0.5974,-0.5928,-0.5903,-0.5876,-0.5836,-0.5816,-0.5787,-0.5749,-0.5717,-0.5675,-0.5638,-0.5589,-0.5547,-0.5533,-0.5517,-0.5523,-0.5523,-0.5516,-0.5493,-0.5498,-0.5537,-0.5537,-0.5537,-0.5537,-0.5537,-0.5537,-0.6049,-0.6026,-0.5999,-0.5959,-0.5928,-0.5895,-0.5875,-0.5844,-0.5813,-0.5769,-0.5738,-0.5706,-0.5662,-0.5617,-0.558,-0.5566,-0.5552,-0.5563,-0.5545,-0.5523,-0.5519,-0.5514,-0.5518,-0.5561,-0.5561,-0.557,-0.557,-0.557]},{"header":{"parameterUnit":"m.s-1","parameterCategory":1,"la1":30.2991,"la2":30.254,"lo1":-89.0895,"lo2":-89.0444,"dy":0.0017,"dx":0.0017,"nx":28,"ny":28,"refTime":"2024-08-18T21:00:00:Z","depth":0,"parameterNumber":3,"parameterNumberName":"V-component_of_WINDS"},"data":[0,0,0,0,0,0,0,0,0,0,0,0,0,0,0,0,0,0,0,0,0,0,0,0,0,0,0,0,0,0,0,0,0,0,0,0,0,0,0,0,0,0,0,0,0,0,0,0,0,0,0,0,0,0,0,0,0,0,-2.2986,-2.2985,0,-2.2883,-2.2882,-2.2881,-2.2898,-2.29,-2.2901,-2.2903,-2.2789,-2.2785,-2.278,0,0,0,0,0,0,0,0,0,0,0,0,0,-2.319,-2.3186,-2.2986,-2.2985,-2.2983,-2.2883,-2.2882,-2.288,-2.2898,-2.29,-2.2902,-2.2904,-2.2791,-2.2785,-2.278,0,0,0,0,0,0,0,0,0,0,0,0,0,-2.3095,-2.3185,-2.2986,-2.298,-2.2979,-2.2883,-2.2882,-2.288,-2.2897,-2.29,-2.2903,-2.2905,-2.2793,-2.2786,-2.2779,-2.2681,0,0,-2.2757,-2.2754,0,0,0,0,0,0,0,0,-2.31,-2.3088,-2.2982,-2.298,-2.2979,-2.2906,-2.2912,-2.2813,-2.2896,-2.2928,-2.2903,-2.2906,-2.2825,-2.2816,-2.279,-2.2675,-2.267,-2.2757,-2.2752,-2.2749,-2.2747,0,0,0,0,0,0,0,-2.3107,-2.3092,-2.2945,-2.2981,-2.2978,-2.298,-2.297,-2.2893,-2.2862,-2.2925,-2.2926,-2.2914,-2.2825,-2.2797,-2.2788,-2.2669,-2.2757,-2.2751,-2.2746,-2.2743,-2.2464,-2.2461,0,0,0,0,0,0,-2.3116,-2.3097,-2.2948,-2.2942,-2.3048,-2.2974,-2.2962,-2.2926,-2.2863,-2.2856,-2.2912,-2.2915,-2.2808,-2.2796,-2.2784,-2.266,-2.2749,-2.2743,-2.2739,-2.2467,-2.2463,-2.246,0,0,0,0,0,0,-2.3121,-2.3103,-2.2952,-2.302,-2.3001,-2.2968,-2.2927,-2.2923,-2.2895,-2.2853,-2.2847,-2.289,-2.281,-2.2794,-2.2706,-2.2657,-2.274,-2.2733,-2.2471,-2.2466,-2.2462,-2.2416,0,0,0,0,0,0,-2.3127,-2.3105,-2.3069,-2.3019,-2.2997,-2.2878,-2.2924,-2.2919,-2.2884,-2.2887,-2.2831,-2.2824,-2.281,-2.2716,-2.2699,-2.2649,-2.2728,-2.2475,-2.2469,-2.2463,-2.2421,-2.241,-2.24,0,0,0,0,0,-2.3134,-2.3059,-2.3067,-2.3049,-2.2952,-2.2876,-2.2863,-2.2851,-2.288,-2.2842,-2.2815,-2.2826,-2.2667,-2.2707,-2.2688,-2.2634,-2.2478,-2.247,-2.2464,-2.2426,-2.2412,-2.24,0,0,0,0,0,0,-2.31,-2.3052,-2.306,-2.2968,-2.2926,-2.2879,-2.283,-2.2837,-2.2784,-2.2789,-2.2775,-2.2762,-2.2672,-2.2646,-2.2691,-2.2534,-2.2576,-2.2564,-2.2554,-2.254,-2.253,-2.2535,-2.2722,0,0,0,0,0,-2.3083,-2.3027,-2.2988,-2.2909,-2.2888,-2.2863,-2.2829,-2.2824,-2.2779,-2.2761,-2.2727,-2.2681,-2.262,-2.258,-2.2522,-2.242,-2.2405,-2.2374,-2.2363,-2.2355,-2.2343,-2.2282,-2.2266,-2.2436,-2.2436,-2.2437,0,0,-2.3044,-2.3012,-2.2977,-2.2902,-2.2869,-2.2808,-2.2848,-2.2783,-2.2736,-2.275,-2.2664,-2.2638,-2.2585,-2.2489,-2.2445,-2.2464,-2.2294,-2.2346,-2.2339,-2.2332,-2.2273,-2.2257,-2.2243,-2.2432,-2.2432,-2.2433,0,0,-2.2942,-2.2915,-2.2844,-2.2811,-2.2762,-2.2745,-2.2729,-2.2681,-2.2664,-2.2579,-2.2587,-2.2532,-2.2429,-2.2389,-2.2356,-2.224,-2.2246,-2.2222,-2.2164,-2.2105,-2.2092,-2.208,-2.2033,-2.2017,-2.2212,-2.2212,-2.2212,0,-2.2899,-2.2811,-2.2807,-2.274,-2.2705,-2.2719,-2.2645,-2.2612,-2.2545,-2.2519,-2.2544,-2.2413,-2.2379,-2.2271,-2.2243,-2.2217,-2.2194,-2.2225,-2.2095,-2.2083,-2.2071,-2.2026,-2.2009,-2.2209,-2.2209,-2.2209,-2.221,0,-2.2758,-2.2697,-2.2646,-2.2583,-2.2543,-2.2473,-2.2455,-2.2415,-2.2414,-2.2395,-2.2306,-2.2266,-2.2198,-2.2174,-2.2172,-2.2065,-2.2078,-2.2099,-2.2139,-2.2052,-2.2009,-2.1992,-2.2204,-2.2205,-2.2206,-2.2207,0,0,-2.2627,-2.2565,-2.2545,-2.2515,-2.2463,-2.2413,-2.2344,-2.228,-2.2243,-2.2198,-2.2135,-2.2049,-2.2067,-2.203,-2.2024,-2.1973,-2.1877,-2.2,-2.1998,-2.1973,-2.175,-2.1729,-2.171,-2.1884,-2.1881,-2.1879,-2.1752,0,-2.2516,-2.2394,-2.2388,-2.2276,-2.2216,-2.223,-2.2168,-2.2127,-2.2108,-2.2052,-2.2031,-2.1967,-2.2,-2.1976,-2.1928,-2.1899,-2.1831,-2.191,-2.182,-2.1817,-2.1826,-2.1688,-2.1667,-2.1549,-2.1736,-2.1734,-2.1732,0,-2.2368,-2.2319,-2.2201,-2.2155,-2.213,-2.2075,-2.2015,-2.1964,-2.1917,-2.1906,-2.1865,-2.1866,-2.1791,-2.1839,-2.1733,-2.1786,-2.175,-2.1731,-2.1726,-2.1711,-2.1764,-2.1663,-2.1512,-2.1492,-2.1706,-2.1708,-2.171,0,-2.2276,-2.2182,-2.2098,-2.2073,-2.2019,-2.1979,-2.1954,-2.1911,-2.1872,-2.182,-2.1794,-2.1733,-2.1698,-2.165,-2.1633,-2.1671,-2.1525,-2.1573,-2.1509,-2.1509,-2.1471,-2.1472,-2.1305,-2.146,-2.1461,-2.1461,-2.1461,0,-2.2147,-2.2073,-2.2055,-2.2003,-2.1919,-2.1914,-2.183,-2.1808,-2.1769,-2.171,-2.172,-2.1663,-2.1649,-2.1589,-2.1576,-2.1486,-2.1472,-2.1458,-2.1454,-2.1452,-2.1453,-2.1423,-2.1428,-2.1456,-2.1457,-2.1458,-2.1459,0,-2.2028,-2.2014,-2.1922,-2.188,-2.1867,-2.1807,-2.1768,-2.1716,-2.17,-2.1625,-2.1607,-2.1579,-2.1509,-2.1491,-2.1407,-2.1398,-2.129,-2.1298,-2.1306,-2.1304,-2.1238,-2.1241,-2.1039,-2.1009,-2.1191,-2.1189,-2.1188,0,-2.1943,-2.1886,-2.1838,-2.1801,-2.1774,-2.1714,-2.1675,-2.1668,-2.1626,-2.1569,-2.1522,-2.1455,-2.1399,-2.1286,-2.1256,-2.1191,-2.1193,-2.1127,-2.1182,-2.1182,-2.1183,-2.1184,-2.1175,-2.1113,-2.1111,-2.111,-2.1109,0,-2.1792,-2.1788,-2.1734,-2.1676,-2.163,-2.1583,-2.1539,-2.1507,-2.1493,-2.1445,-2.1375,-2.1332,-2.1248,-2.1177,-2.1112,-2.1083,-2.109,-2.1093,-2.1073,-2.1067,-2.1071,-2.1061,-2.1269,-2.1095,-2.1097,-2.1097,-2.1098,-2.1099,-2.1682,-2.1631,-2.1589,-2.1526,-2.1493,-2.1451,-2.1399,-2.1377,-2.132,-2.125,-2.125,-2.1172,-2.1125,-2.1039,-2.1007,-2.0943,-2.0962,-2.0935,-2.0927,-2.0918,-2.0909,-2.1088,-2.0932,-2.0932,-2.0933,-2.0933,-2.0933,0,-2.1526,-2.15,-2.1444,-2.1381,-2.1332,-2.135,-2.1301,-2.1257,-2.1189,-2.1146,-2.1092,-2.1009,-2.0942,-2.0908,-2.084,-2.0796,-2.0797,-2.0777,-2.0776,-2.0768,-2.09,-2.092,-2.0777,-2.0777,-2.0777,-2.0777,-2.0777,-2.0777,-2.1438,-2.1351,-2.1342,-2.1237,-2.1211,-2.1136,-2.1106,-2.1066,-2.1032,-2.094,-2.0884,-2.0865,-2.0824,-2.0753,-2.0691,-2.0683,-2.0654,-2.063,-2.0623,-2.0744,-2.076,-2.0775,-2.0793,-2.0626,-2.0626,-2.0496,-2.0495,-2.0494]}]]